Date String (YYYY-MM-DD hh:mm:ss) UTC,Instrument flags,absolute air pressure of the measurement (hPa),sample flow rate (lpm),inlet stack bypass flow (lpm),air temperature of the measurement (°C),ambient temperature measured by the external sensor (°C),aerosol sample conditioner tube jacket temperature (°C),OPC LED temperature (°C),internal box temperature (°C),relative humidity of the measurement (%),span deviation,mass concentration of particles derived from Lorenz-Mie calculation of OPC scattering (μg/m³),mass concentration of particles derived from Lorenz-Mie calculation of OPC scattering (μg/m³),mass concentration of particles derived from Lorenz-Mie calculation of OPC scattering (μg/m³)
DateTimeUTC,F1_M11,P_M11,Q1_M11,Q2_M11,T1_M11,T2_M11,T3_M11,T4_M11,T5_M11,U1_M11,ZSPAN_M11,X0_M11,X2_M11,X1_M11
2024-02-28 09:00:00,SystemResetWarning,0826.4,4.99,000.00,018.8,018.3,000.0,027.2,020.3,05.1,0000.0,0002.40,0000.85,0000.50
2024-02-28 09:01:00,SystemResetWarning,0826.3,5.01,000.00,018.7,018.1,000.0,027.2,020.3,05.1,0000.0,0002.78,0000.82,0000.50
2024-02-28 09:02:00,SystemResetWarning,0826.4,5.01,000.00,018.7,017.9,000.0,027.1,020.2,05.1,0000.0,0003.05,0000.79,0000.50
2024-02-28 09:03:00,SystemResetWarning,0826.4,5.00,000.00,018.6,017.8,000.0,027.1,020.1,05.1,0000.0,0003.17,0000.83,0000.49
2024-02-28 09:04:00,SystemResetWarning,0826.4,5.01,000.00,018.6,017.9,000.0,027.2,020.2,05.0,0000.0,0003.31,0000.83,0000.48
2024-02-28 09:05:00,SystemResetWarning,0826.4,4.99,000.00,018.7,018.6,000.0,027.3,020.7,05.1,0000.0,0003.37,0000.83,0000.47
2024-02-28 09:06:00,SystemResetWarning,0826.6,4.99,000.00,018.9,019.2,000.0,027.3,021.1,05.0,0000.0,0003.33,0000.82,0000.48
2024-02-28 09:07:00,SystemResetWarning,0826.4,4.99,000.00,019.0,019.0,000.0,027.3,020.9,05.1,0000.0,0003.33,0000.82,0000.47
2024-02-28 09:08:00,SystemResetWarning,0826.4,5.01,000.00,018.9,018.8,000.0,027.2,020.7,05.0,0000.0,0003.14,0000.78,0000.47
2024-02-28 09:09:00,SystemResetWarning,0826.4,5.01,000.00,018.8,018.6,000.0,027.2,020.5,05.0,0000.0,0002.56,0000.73,0000.45
2024-02-28 09:10:00,SystemResetWarning,0826.4,4.99,000.00,018.8,018.4,000.0,027.2,020.4,05.0,0000.0,0002.64,0000.75,0000.46
2024-02-28 09:11:00,SystemResetWarning,0826.4,4.99,000.00,018.7,018.2,000.0,027.1,020.3,05.2,0000.0,0002.61,0000.73,0000.45
2024-02-28 09:12:00,SystemResetWarning,0826.4,5.01,000.00,018.7,018.0,000.0,027.1,020.2,05.3,0000.0,0002.08,0000.73,0000.45
2024-02-28 09:13:00,SystemResetWarning,0826.4,5.01,000.00,018.6,017.9,000.0,027.1,020.1,05.2,0000.0,0001.83,0000.75,0000.46
2024-02-28 09:14:00,SystemResetWarning,0826.4,4.99,000.00,018.6,017.8,000.0,027.1,020.1,05.2,0000.0,0001.76,0000.72,0000.46
2024-02-28 09:15:00,SystemResetWarning,0826.4,4.99,000.00,018.5,017.7,000.0,027.0,020.0,05.1,0000.0,0001.70,0000.72,0000.47
2024-02-28 09:16:00,SystemResetWarning,0826.3,5.00,000.00,018.5,017.7,000.0,027.0,020.1,04.8,0000.0,0001.76,0000.74,0000.48
2024-02-28 09:17:00,SystemResetWarning,0826.3,5.02,000.00,018.6,018.2,000.0,027.2,020.4,04.8,0000.0,0002.29,0000.75,0000.47
2024-02-28 09:18:00,SystemResetWarning,0826.4,4.99,000.00,018.8,019.1,000.0,027.3,021.0,04.8,0000.0,0002.68,0000.76,0000.46
2024-02-28 09:19:00,SystemResetWarning,0826.4,4.99,000.00,019.0,019.5,000.0,027.3,021.2,04.8,0000.0,0002.83,0000.79,0000.46
2024-02-28 09:20:00,SystemResetWarning,0826.4,4.99,000.00,019.0,019.3,000.0,027.2,021.0,04.8,0000.0,0002.80,0000.81,0000.45
2024-02-28 09:21:00,SystemResetWarning,0826.4,5.00,000.00,019.0,019.0,000.0,027.2,020.8,04.8,0000.0,0002.95,0000.83,0000.44
2024-02-28 09:22:00,SystemResetWarning,0826.3,5.00,000.00,018.9,018.8,000.0,027.2,020.6,04.7,0000.0,0002.99,0000.85,0000.44
2024-02-28 09:23:00,SystemResetWarning,0826.3,5.00,000.00,018.9,018.6,000.0,027.2,020.5,04.7,0000.0,0003.02,0000.87,0000.45
2024-02-28 09:24:00,SystemResetWarning,0826.4,4.99,000.00,018.8,018.4,000.0,027.2,020.4,04.7,0000.0,0003.10,0000.90,0000.45
2024-02-28 09:25:00,SystemResetWarning,0826.3,4.99,000.00,018.8,018.2,000.0,027.1,020.4,04.8,0000.0,0003.08,0000.90,0000.46
2024-02-28 09:26:00,SystemResetWarning,0826.2,5.00,000.00,018.7,018.1,000.0,027.1,020.3,04.9,0000.0,0003.27,0000.91,0000.46
2024-02-28 09:27:00,SystemResetWarning,0826.2,5.00,000.00,018.7,018.0,000.0,027.1,020.2,05.0,0000.0,0003.82,0000.97,0000.45
2024-02-28 09:28:00,SystemResetWarning,0826.1,5.00,000.00,018.6,017.8,000.0,027.1,020.1,04.9,0000.0,0003.38,0000.97,0000.46
2024-02-28 09:29:00,SystemResetWarning,0826.3,5.00,000.00,018.5,017.7,000.0,027.0,020.0,05.0,0000.0,0003.16,0001.02,0000.46
2024-02-28 09:30:00,SystemResetWarning,0826.4,5.00,000.00,018.5,017.7,000.0,027.1,020.1,05.2,0000.0,0003.29,0001.04,0000.46
2024-02-28 09:31:00,SystemResetWarning,0826.4,5.02,000.00,018.6,018.3,000.0,027.2,020.5,05.1,0000.0,0003.39,0001.04,0000.46
2024-02-28 09:32:00,SystemResetWarning,0826.4,4.99,000.00,018.8,019.1,000.0,027.3,021.1,05.5,0000.0,0003.29,0001.04,0000.47
2024-02-28 09:33:00,SystemResetWarning,0826.4,4.99,000.00,019.0,019.4,000.0,027.3,021.2,05.8,0000.0,0003.33,0001.04,0000.47
2024-02-28 09:34:00,SystemResetWarning,0826.4,5.00,000.00,019.0,019.3,000.0,027.2,021.0,05.7,0000.0,0003.39,0001.03,0000.46
2024-02-28 09:35:00,SystemResetWarning,0826.4,5.01,000.00,019.0,019.0,000.0,027.2,020.8,05.6,0000.0,0003.31,0001.00,0000.45
2024-02-28 09:36:00,SystemResetWarning,0826.4,5.01,000.00,018.9,018.8,000.0,027.2,020.7,05.4,0000.0,0003.44,0001.01,0000.45
2024-02-28 09:37:00,SystemResetWarning,0826.4,5.00,000.00,018.9,018.6,000.0,027.2,020.6,05.5,0000.0,0004.10,0001.09,0000.46
2024-02-28 09:38:00,SystemResetWarning,0826.3,5.00,000.00,018.9,018.4,000.0,027.2,020.5,05.3,0000.0,0003.61,0001.11,0000.47
2024-02-28 09:39:00,SystemResetWarning,0826.4,5.00,000.00,018.8,018.2,000.0,027.2,020.3,05.2,0000.0,0004.84,0001.10,0000.47
2024-02-28 09:40:00,SystemResetWarning,0826.3,5.01,000.00,018.7,018.0,000.0,027.1,020.2,05.3,0000.0,0004.99,0001.11,0000.48
2024-02-28 09:41:00,SystemResetWarning,0826.3,5.01,000.00,018.7,017.9,000.0,027.1,020.2,05.4,0000.0,0004.90,0001.13,0000.49
2024-02-28 09:42:00,SystemResetWarning,0826.3,4.99,000.00,018.6,017.8,000.0,027.1,020.2,05.7,0000.0,0004.72,0001.11,0000.49
2024-02-28 09:43:00,SystemResetWarning,0826.3,5.00,000.00,018.6,017.8,000.0,027.1,020.1,05.7,0000.0,0004.63,0001.08,0000.49
2024-02-28 09:44:00,SystemResetWarning,0826.3,4.99,000.00,018.5,017.7,000.0,027.1,020.1,05.6,0000.0,0004.68,0001.13,0000.50
2024-02-28 09:45:00,SystemResetWarning,0826.4,5.01,000.00,018.5,018.1,000.0,027.2,020.4,05.5,0000.0,0004.54,0001.15,0000.53
2024-02-28 09:46:00,SystemResetWarning,0826.4,5.00,000.00,018.8,018.9,000.0,027.3,020.9,05.4,0000.0,0004.76,0001.21,0000.56
2024-02-28 09:47:00,SystemResetWarning,0826.4,4.99,000.00,018.9,019.2,000.0,027.3,021.0,05.4,0000.0,0004.71,0001.22,0000.57
2024-02-28 09:48:00,SystemResetWarning,0826.4,4.99,000.00,018.9,019.0,000.0,027.2,020.9,05.4,0000.0,0004.09,0001.19,0000.58
2024-02-28 09:49:00,SystemResetWarning,0826.2,5.00,000.00,018.9,018.8,000.0,027.2,020.7,05.4,0000.0,0004.13,0001.14,0000.58
2024-02-28 09:50:00,SystemResetWarning,0826.2,5.00,000.00,018.9,018.6,000.0,027.2,020.6,05.4,0000.0,0003.47,0001.17,0000.60
2024-02-28 09:51:00,SystemResetWarning,0826.2,5.00,000.00,018.8,018.4,000.0,027.2,020.5,05.4,0000.0,0004.31,0001.20,0000.60
2024-02-28 09:52:00,SystemResetWarning,0826.2,5.01,000.00,018.8,018.3,000.0,027.2,020.4,05.4,0000.0,0004.60,0001.25,0000.61
2024-02-28 09:53:00,SystemResetWarning,0826.2,5.00,000.00,018.7,018.2,000.0,027.1,020.3,05.5,0000.0,0004.73,0001.30,0000.62
2024-02-28 09:54:00,SystemResetWarning,0826.1,4.99,000.00,018.7,018.0,000.0,027.1,020.2,05.4,0000.0,0004.84,0001.36,0000.64
2024-02-28 09:55:00,SystemResetWarning,0826.2,4.99,000.00,018.6,017.9,000.0,027.1,020.2,05.3,0000.0,0004.82,0001.37,0000.65
2024-02-28 09:56:00,SystemResetWarning,0826.1,5.00,000.00,018.6,017.9,000.0,027.1,020.2,05.1,0000.0,0005.15,0001.39,0000.64
2024-02-28 09:57:00,SystemResetWarning,0826.2,5.01,000.00,018.6,018.0,000.0,027.2,020.3,05.1,0000.0,0004.97,0001.37,0000.63
2024-02-28 09:58:00,SystemResetWarning,0826.2,5.01,000.00,018.7,018.7,000.0,027.3,020.8,05.1,0000.0,0004.87,0001.35,0000.62
2024-02-28 09:59:00,SystemResetWarning,0826.3,4.99,000.00,019.0,019.5,000.0,027.4,021.3,05.1,0000.0,0004.77,0001.32,0000.62
